{"data":{"norad_id":64454,"intl_designator":"2025-130S","name":"STARLINK-34282","alt_names":[],"object_type":"PAYLOAD","status":"ACTIVE","operator":null,"country":"US","launch_date":"2025-06-18","launch_site_code":"AFETR","launch_vehicle":null,"mission":null,"orbit_class":"UNKNOWN","rcs_meters":null,"size_class":null,"mass_kg":null,"dimensions":null,"purposes":["comms"],"wikipedia_slug":null,"has_3d_model":false,"image_url":null,"decayed_at":null,"tle_current":{"epoch":"2026-09-20T05:20:47.532768Z","epoch_age_seconds":155638,"freshness":"FRESH","line1":"1 64454U 25130S   26263.22277237  .00015243  00000+0  50175-3 0  9990","line2":"2 64454  53.1593 265.8973 0001328  96.9088 263.2065 15.31712581 70471","mean_motion":15.31712581,"eccentricity":0.0001328,"inclination_deg":53.1593,"raan_deg":265.8973,"arg_perigee_deg":96.9088,"mean_anomaly_deg":263.2065,"bstar":0.00050175,"rev_number":7047,"period_min":94.012415766663,"perigee_km":469.79296629145,"apogee_km":471.61201806057,"semimajor_km":6848.839492176,"source":"CELESTRAK","updated_at":"2026-09-21T09:00:35.355401Z"}}}